Powrót do katalogu

STARLINK-31250

AktywnyŁącznośćVLEO
NORAD 58839·PAYLOAD·🇺🇸 United States

Wystrzelony Jan 24, 2024 z Vandenberg Space Force Base

Loading…

Następne Przeloty (najbliższe 24 godziny)

TLE

ŚwieżeSource: CelesTrak SupGP

Epoka: Sep 15, 2026, 02:09 UTC

1 58839C 24017P   26258.09006944 -.00006103  00000+0 -18031-3 0  2587
2 58839  53.1595  30.6989 0001093  79.3709 139.4550 15.34393319    15

Śledź STARLINK-31250 w czasie rzeczywistym z AllMySat

Download on the App Store